Regional Weather Roundup
Issued by NWS Bismarck, ND

Home | Current Version | Previous Version | Text Only | Print | Product List | Glossary On
Versions: 1 2 3 4 5 6 7 8 9 10 11 12 13 14 15 16 17 18 19 20 21 22 23 24 25 26 27 28 29 30 31 32 33 34 35 36 37 38 39 40 41 42 43 44 45 46 47 48 49 50
000
ASUS43 KBIS 140410
RWRBIS

NWR BROADCAST TEXT
NATIONAL WEATHER SERVICE BISMARCK ND
1000 PM CST SAT FEB 13 2016

NOTE: "FAIR" INDICATES FEW OR NO CLOUDS BELOW 12,000 FEET WITH NO
SIGNIFICANT WEATHER AND/OR OBSTRUCTIONS TO VISIBILITY.


CITY           SKY/WX    TMP DP  RH WIND       PRES   REMARKS
WILLISTON      CLOUDY    30  27  88 NW21G28   29.80R WCI  17
MINOT          LGT SNOW  18  11  74 SE7       29.80F WCI   9
MINOT AFB      LGT SNOW  16  16 100 CALM      29.81F FOG
BISMARCK       CLOUDY    19  12  74 S15       29.87F WCI   5
DICKINSON      CLOUDY    34  32  92 W15       29.75R
GARRISON         N/A     17  15  92 S12       29.79F WCI   4
HETTINGER ARPT CLOUDY    30  27  88 W7        29.81S
JAMESTOWN      SNOW      12   8  84 SE20      29.95F VSB 1/2 WCI  -6
BEACH          CLOUDY    36  36 100 NW20G28   29.84R
CARRINGTON     LGT SNOW  10  10 100 SE23G30   29.93F WCI -10
LINTON         CLOUDY    14  14 100 SE16G23   29.90F FOG     WCI  -2
OAKES          CLOUDY    12  10  92 S17       30.05F FOG     WCI  -5
TIOGA          CLOUDY    18  18 100 CALM      29.81S FOG
$$

CITY           SKY/WX    TMP DP  RH WIND       PRES   REMARKS
GRAND FORKS    CLOUDY    14   3  61 S20       30.09F WCI  -3
GRAND FORKS AF CLOUDY    13   3  62 S18G28    30.07F WCI  -4
DEVILS LAKE    LGT SNOW   9   5  84 SE23      29.93F FOG     WCI -11
FARGO          CLOUDY    14   0  53 S17G33    30.11F WCI  -3
GWINNER        CLOUDY    14   7  73 SE17      30.08S WCI  -3
ROLLA          LGT SNOW   7   5  92 S14G21    29.88F WCI -10
WALHALLA       FAIR      10   5  79 SE15      30.04F WCI  -6
$$

CITY           SKY/WX    TMP DP  RH WIND       PRES   REMARKS
ABERDEEN       LGT SNOW  15  10  80 S22G30    30.03F WCI  -3
MOBRIDGE       SNOW      20  17  88 SE12      29.84F VSB 1/2 WCI   8
BUFFALO          N/A     37  33  85 W18       29.77R
RAPID CITY     CLOUDY    38  32  79 NW16      29.86R
GLASGOW        CLEAR     32  28  85 NW5       29.87S
SIDNEY         CLOUDY    34  28  80 NW16      29.83R
WOLF POINT     MOCLDY    38  32  79 NW20G26   29.86R
GLENDIVE       MOCLDY    37  34  87 W26G37    29.86R
MILES CITY     CLEAR     37  30  75 W12       29.92R
BAKER          CLOUDY    37  32  82 W18G28    29.86R
$$

CITY           SKY/WX    TMP DP  RH WIND       PRES   REMARKS
BILLINGS       PTCLDY    39  17  41 W14       30.01F
GREAT FALLS    CLOUDY    37  20  50 SW13      29.97F
REGINA         FLURRIES  23  21  93 NW15G22   29.77F WCI  10
$$




USA.gov is the U.S. government's official web portal to all federal, state and local government web resources and services.